📊 Raw Sensor Data

Showing records 48776 to 48800 of 85,107 total

ID Distance (ft) Battery V Battery A Int Temp (°F) Int Humid (%) Ext Temp (°F) Solar V RSSI SNR Time Stamp
36344 15.1 3.97 -5 48 41 49 0.10 -78 8 03/29/2025 11:45 PM
36343 15.1 4.03 -5 49 41 49 0.00 -79 8 03/29/2025 11:30 PM
36342 -- 3.97 -5 49 41 50 0.00 -78 8 03/29/2025 11:15 PM
36341 15.1 4.03 -5 50 41 50 0.00 -78 8 03/29/2025 10:45 PM
36340 15.0 3.98 -5 51 41 52 0.00 -80 6 03/29/2025 10:30 PM
36339 15.0 3.98 -5 52 41 53 0.00 -79 8 03/29/2025 10:15 PM
36338 15.0 3.98 -5 53 41 53 0.00 -84 8 03/29/2025 10:00 PM
36337 15.0 4.03 -5 53 41 54 0.00 -86 8 03/29/2025 09:45 PM
36336 15.0 3.98 -5 53 41 54 0.00 -89 8 03/29/2025 09:30 PM
36335 15.1 3.98 -5 54 41 54 0.00 -85 7 03/29/2025 09:15 PM
36334 -- 3.98 -5 54 41 55 0.00 -85 7 03/29/2025 09:00 PM
36333 -- 3.98 -5 55 41 56 0.00 -82 8 03/29/2025 08:45 PM
36332 15.1 3.98 -5 54 41 56 0.00 -82 7 03/29/2025 08:30 PM
36331 -- 4.04 -5 54 42 54 0.10 -83 7 03/29/2025 08:15 PM
36330 -- 4.04 -5 54 42 54 0.00 -81 7 03/29/2025 08:00 PM
36329 -- 3.99 -5 55 43 55 0.00 -81 8 03/29/2025 07:45 PM
36328 -- 3.99 -5 56 43 56 0.70 -80 7 03/29/2025 07:30 PM
36327 -- 3.98 -10 58 43 57 4.20 -80 7 03/29/2025 07:15 PM
36326 -- 4.00 0 59 43 58 4.50 -80 8 03/29/2025 07:00 PM
36325 -- 4.01 0 60 44 59 4.50 -80 8 03/29/2025 06:45 PM
36324 -- 4.07 10 61 44 60 4.50 -80 7 03/29/2025 06:30 PM
36323 -- 4.03 -14 63 44 60 4.50 -80 8 03/29/2025 06:15 PM
36322 -- 4.07 24 65 44 61 4.50 -80 7 03/29/2025 06:00 PM
36321 -- 4.11 11 66 44 61 4.50 -80 8 03/29/2025 05:45 PM
36320 15.3 4.03 0 71 41 64 5.10 -80 7 03/29/2025 05:30 PM